EW3708 Weather Reports


time (UTC)temp
C
wind
direction
speed
KPH
gust
KPH
rain 1hr
cm
rain 24hr
cm
rain mn
cm
humidity
%
barometer
mb
20260902064601 21 235 0.0 1.6 0.00 0.33 0.00 95 1015.7
20260902063049 21 235 0.0 1.6 0.00 0.33 0.00 95 1015.8
20260902061556 21 248 0.0 3.2 0.00 0.33 0.00 95 1016.1
20260902060048 21 238 0.0 4.8 0.00 0.33 0.00 96 1016.3
20260902054550 21 111 0.0 3.2 0.00 0.33 0.00 95 1016.3
20260902053044 20 111 0.0 1.6 0.00 0.33 0.00 95 1016.4
20260902051541 20 111 0.0 0.0 0.00 0.33 0.00 95 1016.3
20260902050041 20 111 0.0 0.0 0.00 0.33 0.00 95 1016.2
20260902044538 20 111 0.0 0.0 0.00 0.33 0.00 95 1016.1
20260902043038 20 111 0.0 0.0 0.00 0.33 0.00 94 1016.2
20260902041536 20 111 0.0 0.0 0.00 0.33 0.00 94 1016.0
20260902040034 20 111 0.0 0.0 0.00 0.33 0.00 94 1015.7
20260902034532 20 111 0.0 0.0 0.00 0.33 0.33 94 1015.7
20260902033039 20 111 0.0 0.0 0.00 0.33 0.33 94 1015.5
20260902031534 20 111 0.0 0.0 0.00 0.33 0.33 94 1015.4
20260902030031 19 111 0.0 0.0 0.00 0.33 0.33 93 1015.4
20260902024530 20 111 0.0 0.0 0.00 0.33 0.33 94 1014.8
20260902023030 20 111 0.0 0.0 0.00 0.33 0.33 94 1014.4
20260902021535 20 111 0.0 0.0 0.00 0.33 0.33 93 1014.6
20260902020029 20 111 0.0 0.0 0.00 0.33 0.33 93 1014.4
20260902014536 20 111 0.0 0.0 0.00 0.33 0.33 93 1014.3
20260902013030 20 111 0.0 0.0 0.00 0.33 0.33 93 1014.2
20260902011535 20 111 0.0 0.0 0.00 0.33 0.33 93 1014.5
20260902010042 20 111 0.0 0.0 0.00 0.33 0.33 93 1014.9
20260902004533 20 111 0.0 0.0 0.00 0.33 0.33 93 1014.7
20260902003026 21 111 0.0 0.0 0.03 0.33 0.33 93 1014.2
20260902001526 21 111 0.0 0.0 0.03 0.33 0.33 93 1013.4
20260902000043 21 111 0.0 0.0 0.03 0.33 0.33 93 1013.0
20260901234551 21 111 0.0 0.0 0.03 0.33 0.33 93 1012.8
20260901233024 21 111 0.0 0.0 0.00 0.30 0.30 93 1013.1
20260901231538 21 111 0.0 0.0 0.00 0.30 0.30 93 1013.3
20260901230026 21 111 0.0 0.0 0.00 0.30 0.30 93 1013.1
20260901224530 21 111 0.0 0.0 0.00 0.30 0.30 92 1013.3
20260901223034 21 111 0.0 1.6 0.03 0.30 0.30 92 1013.4
20260901221528 21 111 0.0 3.2 0.18 0.30 0.30 92 1013.5
20260901220023 21 113 0.0 3.2 0.20 0.30 0.30 90 1013.3
20260901214522 22 113 1.6 3.2 0.28 0.30 0.30 88 1012.8
20260901213021 23 213 3.2 6.4 0.23 0.25 0.25 87 1013.3
20260901211520 25 193 0.0 3.2 0.10 0.13 0.13 87 1013.0
20260901210020 26 193 1.6 3.2 0.08 0.10 0.10 82 1013.0
20260901204519 27 132 0.0 4.8 0.00 0.03 0.03 75 1012.4
20260901203022 27 244 1.6 4.8 0.00 0.03 0.03 75 1012.7
20260901201515 27 301 1.6 4.8 0.00 0.03 0.03 75 1012.6
20260901200029 27 40 0.0 3.2 0.00 0.03 0.03 77 1012.7
20260901194512 27 98 0.0 3.2 0.00 0.05 0.03 76 1012.8
20260901193009 27 169 1.6 9.7 0.00 0.05 0.03 74 1013.0
20260901191512 27 217 1.6 6.4 0.00 0.05 0.03 74 1013.1
20260901190017 27 137 1.6 6.4 0.00 0.05 0.03 76 1013.1
20260901184504 27 262 0.0 6.4 0.00 0.10 0.03 78 1013.3
20260901183008 26 279 1.6 4.8 0.00 0.10 0.03 79 1013.4
20260901181604 26 199 0.0 3.2 0.00 0.10 0.03 81 1013.4
20260901180100 25 302 0.0 3.2 0.00 0.10 0.03 80 1013.5
20260901174559 25 244 0.0 3.2 0.00 0.13 0.03 80 1013.4
20260901173109 26 247 0.0 4.8 0.00 0.13 0.03 79 1013.4
20260901171558 26 125 3.2 11.3 0.00 0.13 0.03 79 1013.4
20260901170058 25 215 0.0 4.8 0.00 0.13 0.03 81 1013.6
20260901164605 25 269 1.6 4.8 0.00 0.13 0.03 81 1013.8
20260901163048 25 144 3.2 8.0 0.00 0.13 0.03 82 1014.0
20260901161544 24 67 1.6 4.8 0.00 0.13 0.03 86 1014.2
20260901160044 23 236 0.0 3.2 0.00 0.13 0.03 89 1014.2
20260901154540 23 236 0.0 3.2 0.00 0.13 0.03 90 1014.3
20260901153038 22 236 0.0 3.2 0.00 0.13 0.03 91 1014.4
20260901151529 22 225 1.6 4.8 0.00 0.13 0.03 92 1014.5
20260901150025 22 198 0.0 3.2 0.03 0.13 0.03 92 1014.4
20260901144533 22 100 0.0 1.6 0.03 0.13 0.03 92 1014.4
20260901143023 22 100 0.0 1.6 0.03 0.13 0.03 92 1014.4
20260901141513 22 266 0.0 3.2 0.03 0.13 0.03 91 1014.6
20260901140012 22 286 0.0 4.8 0.00 0.10 0.00 91 1014.7
20260901134508 22 306 0.0 3.2 0.00 0.10 0.00 93 1014.6
20260901133006 21 104 0.0 4.8 0.00 0.10 0.00 94 1014.6
20260901131506 21 151 1.6 3.2 0.00 0.10 0.00 95 1014.6
20260901130100 21 15 0.0 4.8 0.00 0.10 0.00 95 1014.6
20260901124559 20 70 0.0 3.2 0.00 0.10 0.00 95 1014.7
20260901123056 20 165 0.0 1.6 0.00 0.10 0.00 95 1014.8
20260901121609 20 165 0.0 1.6 0.00 0.10 0.00 95 1014.9
20260901120104 20 165 0.0 1.6 0.00 0.10 0.00 95 1014.9
20260901114559 19 165 0.0 0.0 0.00 0.10 0.00 95 1014.9
20260901113051 19 165 0.0 0.0 0.00 0.10 0.00 94 1014.7
20260901111553 19 165 0.0 0.0 0.00 0.10 0.00 95 1014.6
20260901110050 18 165 0.0 3.2 0.00 0.10 0.00 94 1014.9
20260901104547 19 165 0.0 1.6 0.00 0.10 0.00 94 1014.6
20260901103046 19 165 0.0 0.0 0.00 0.10 0.00 94 1014.9
20260901101551 19 165 0.0 0.0 0.00 0.10 0.00 94 1014.9
20260901100044 18 165 0.0 1.6 0.00 0.10 0.00 94 1015.0
20260901094543 18 165 0.0 1.6 0.00 0.10 0.00 94 1015.1
20260901093109 18 165 0.0 0.0 0.00 0.10 0.00 93 1015.1
20260901091558 18 165 0.0 0.0 0.00 0.10 0.00 93 1015.0
20260901090042 18 165 0.0 0.0 0.00 0.10 0.00 93 1015.0
20260901084540 18 165 0.0 0.0 0.00 0.10 0.00 94 1015.1
20260901083044 18 165 0.0 0.0 0.00 0.10 0.00 93 1015.2
20260901081537 18 165 0.0 1.6 0.00 0.10 0.00 93 1015.4
20260901080043 18 165 0.0 0.0 0.00 0.10 0.00 93 1015.2
20260901074536 18 165 0.0 0.0 0.00 0.10 0.00 93 1015.4
20260901073036 18 165 0.0 0.0 0.00 0.10 0.00 92 1015.6
20260901071535 18 165 0.0 0.0 0.00 0.10 0.00 92 1015.4
20260901070036 18 165 0.0 0.0 0.00 0.10 0.00 92 1015.5